Location: Liscomb Game Sanctuary
(45.1633°N, 62.5575°W)
Time: 13:10:12
(UTC-03:00)

Amateur Radio Satellites - All Passes

Search period start: 01 September 2015 12:40
Search period end: 02 September 2015 12:40
Location: Liscomb Game Sanctuary, 45.1633°N, 62.5575°W

Satellite Date Start Highest point End Downlink Frequencies (MHz)
Time Altitude Azimuth
Cosmos 2504 01 Sep 12:41:21 12:48:15 28° 279° (W) 12:54:38 435.465 / 435.565
HUMSAT D 01 Sep 12:45:43 12:49:11 24° 293° (WNW) 12:52:32 437.325/437.525
DX 1 01 Sep 12:49:01 12:53:09 40° 290° (WNW) 12:57:15 434.975-435.025
DANDE 01 Sep 12:56:35 13:03:26 38° 269° (W) 13:10:56 436.750
UKube-1 01 Sep 13:00:58 13:04:54 34° 291° (WNW) 13:08:47 .
ESTCUBE 1 01 Sep 13:01:38 13:06:05 60° 287° (WNW) 13:10:31 437.505/2401.250
SPROUT 01 Sep 13:05:25 13:09:32 41° 98° (E) 13:13:39 437.525
PCSat 01 Sep 13:10:33 13:13:06 13° 256° (WSW) 13:15:22 145.827
CUBEBUG 1 01 Sep 13:11:58 13:16:18 56° 287° (WNW) 13:20:38 437.445
AISAT 01 Sep 13:13:15 13:17:22 35° 291° (WNW) 13:21:25 437.250
GONETS M04 01 Sep 13:17:51 13:25:39 35° 66° (ENE) 13:33:36
Oscar 19 01 Sep 13:18:31 13:23:31 54° 71° (ENE) 13:28:36 437.125/150
JAS-2 01 Sep 13:20:45 13:25:40 19° 54° (NE) 13:30:53 435.910
ISS 01 Sep 13:22:30 13:25:24 28° 10° (N) 13:28:17 145.825
AO-7 01 Sep 13:31:30 13:35:22 15° 41° (NE) 13:39:34 29.400- 29.500
VELOX 1 01 Sep 13:41:55 13:45:15 20° 296° (WNW) 13:48:30 145.980
Cosmos 2499 01 Sep 13:48:13 13:52:49 16° 51° (NE) 13:57:44 435.465 / 435.565
SWISSCUBE 01 Sep 14:01:46 14:05:03 19° 90° (E) 14:08:28 437.505
Gurwin Techsat 1B 01 Sep 14:04:01 14:09:03 46° 69° (ENE) 14:14:08 435.225
TISAT 1 01 Sep 14:07:09 14:11:26 77° 285° (WNW) 14:15:42 437.305
BEESAT 3 01 Sep 14:15:59 14:17:04 11° 110° (ESE) 14:18:23 437.485
ITAMSAT 1 01 Sep 14:18:39 14:23:38 51° 70° (ENE) 14:28:39 435.822/435.867
BEESAT 2 01 Sep 14:28:43 14:30:01 12° 110° (ESE) 14:31:32 435.950
RS-15 01 Sep 14:34:17 14:38:45 14° 97° (E) 14:44:11 29.354- 29.394
ITUPSAT 1 01 Sep 14:39:48 14:44:15 38° 97° (E) 14:48:42 437.325
SPROUT 01 Sep 14:42:02 14:45:23 21° 294° (WNW) 14:48:37 437.525
HORYU 2 01 Sep 14:50:48 14:52:59 14° 61° (ENE) 14:55:21 437.375
ISS 01 Sep 14:58:51 15:02:07 85° 27° (NNE) 15:05:23 145.825
Oscar 19 01 Sep 14:59:18 15:03:15 21° 269° (W) 15:07:05 437.125/150
JAS-2 01 Sep 15:01:53 15:09:34 74° 72° (ENE) 15:17:26 435.910
BEESAT 01 Sep 15:12:26 15:17:14 82° 104° (ESE) 15:21:59 436.000
GONETS M04 01 Sep 15:14:26 15:23:03 59° 268° (W) 15:31:35
AO-7 01 Sep 15:18:29 15:26:27 53° 63° (ENE) 15:34:28 29.400- 29.500
SWISSCUBE 01 Sep 15:38:37 15:43:16 52° 289° (WNW) 15:47:53 437.505
Cosmos 2499 01 Sep 15:39:31 15:48:13 66° 77° (ENE) 15:56:20 435.465 / 435.565
Gurwin Techsat 1B 01 Sep 15:44:50 15:49:16 26° 268° (W) 15:53:36 435.225
BEESAT 3 01 Sep 15:50:22 15:54:27 80° 306° (NW) 15:58:33 437.485
STARS 01 Sep 15:53:21 15:56:52 23° 93° (E) 16:00:27 437.465
ITAMSAT 1 01 Sep 15:59:25 16:03:28 22° 268° (W) 16:07:24 435.822/435.867
BEESAT 2 01 Sep 16:03:25 16:07:31 79° 305° (NW) 16:11:40 435.950
KKS-1 01 Sep 16:13:02 16:17:31 60° 101° (E) 16:21:58 437.445
ITUPSAT 1 01 Sep 16:18:00 16:21:59 26° 295° (WNW) 16:25:52 437.325
HORYU 2 01 Sep 16:24:35 16:29:05 75° 257° (WSW) 16:33:37 437.375
MOZHAYETS 4 01 Sep 16:31:23 16:34:00 15° 88° (E) 16:36:49
ISS 01 Sep 16:36:15 16:38:10 15° 226° (SW) 16:40:00 145.825
RS-15 01 Sep 16:38:18 16:48:59 65° 117° (ESE) 17:00:12 29.354- 29.394
AIST 2 01 Sep 16:44:16 16:48:27 59° 121° (ESE) 16:52:39 435.215
JAS-2 01 Sep 16:48:55 16:55:19 27° 272° (W) 17:01:35 435.910
CUTE-I 01 Sep 16:50:47 16:52:48 12° 56° (NE) 16:55:03 437.470
BEESAT 01 Sep 16:52:00 16:54:29 14° 301° (WNW) 16:56:46 436.000
AO-7 01 Sep 17:11:46 17:19:31 40° 263° (W) 17:27:10 29.400- 29.500
GONETS M04 01 Sep 17:15:51 17:18:09 11° 288° (WNW) 17:19:44
STARS 01 Sep 17:29:18 17:33:27 38° 291° (WNW) 17:37:32 437.465
BEESAT 3 01 Sep 17:30:46 17:33:03 14° 327° (NNW) 17:35:16 437.485
Cosmos 2499 01 Sep 17:33:33 17:40:46 29° 278° (W) 17:47:23 435.465 / 435.565
Cubesat XI-IV 01 Sep 17:42:48 17:47:29 33° 66° (ENE) 17:52:13 437.490
BEESAT 2 01 Sep 17:43:58 17:46:16 14° 327° (NNW) 17:48:29 435.950
KKS-1 01 Sep 17:50:49 17:53:43 17° 298° (WNW) 17:56:27 437.445
MOZHAYETS 4 01 Sep 18:07:11 18:11:41 59° 287° (WNW) 18:16:09
AIST 2 01 Sep 18:24:02 18:27:22 21° 321° (NW) 18:30:38 435.215
CUBESAT XI-V 01 Sep 18:26:28 18:30:02 22° 92° (E) 18:33:43 437.345
CUTE-I 01 Sep 18:26:47 18:32:05 76° 74° (ENE) 18:37:25 437.470
AIST 1 01 Sep 18:49:57 18:53:36 26° 72° (ENE) 18:57:17
RS-15 01 Sep 18:51:26 19:02:03 48° 324° (NW) 19:13:05 29.354- 29.394
BRITE-PL 01 Sep 18:55:24 18:58:54 23° 64° (ENE) 19:02:43 437.365/2234.400
O/OREOS (USA 219) 01 Sep 19:15:34 19:19:57 50° 109° (ESE) 19:24:25 437.305
GOMX 1 01 Sep 19:19:58 19:23:42 25° 65° (ENE) 19:27:45 467.674
Cubesat XI-IV 01 Sep 19:22:37 19:27:32 36° 264° (W) 19:32:26 437.490
Cosmos 2491 01 Sep 19:28:10 19:35:53 34° 66° (ENE) 19:43:46 435.465 / 435.565
DOVE 4 01 Sep 19:29:56 19:33:21 21° 63° (ENE) 19:37:03 437.250
HO-68 01 Sep 19:33:08 19:39:16 33° 60° (ENE) 19:45:33 435.675
YUBILEINY 01 Sep 19:42:43 19:46:40 15° 75° (ENE) 19:51:14 435.215
CUTE 1.7 + AOD 2 01 Sep 19:57:02 20:00:23 23° 67° (ENE) 20:03:49 437.475
CUBESAT XI-V 01 Sep 20:03:17 20:07:41 42° 289° (WNW) 20:12:03 437.345
PRISM 01 Sep 20:07:36 20:11:26 38° 98° (E) 20:15:18 437.425
CINEMA 3 01 Sep 20:09:03 20:12:41 23° 64° (ENE) 20:16:32 145.822/145.860
CUTE-I 01 Sep 20:09:43 20:12:52 15° 273° (W) 20:15:46 437.470
CANX-2 01 Sep 20:10:34 20:14:26 34° 70° (ENE) 20:18:21 2200.000
STRAND 1 01 Sep 20:12:37 20:17:41 62° 101° (ESE) 20:22:45 437.568
AIST 1 01 Sep 20:27:28 20:31:15 29° 269° (W) 20:35:00
SEEDS 01 Sep 20:30:22 20:34:19 40° 71° (ENE) 20:38:19 437.485
BRITE-PL 01 Sep 20:33:03 20:37:13 40° 264° (W) 20:41:41 437.365/2234.400
Oscar 11 01 Sep 20:42:00 20:44:55 18° 64° (ENE) 20:47:57 145.826/435.025
COMPASS 1 01 Sep 20:50:39 20:54:43 51° 73° (ENE) 20:58:50 437.405
O/OREOS (USA 219) 01 Sep 20:56:11 20:59:43 21° 309° (NW) 21:03:11 437.305
GOMX 1 01 Sep 20:57:20 21:01:38 39° 265° (W) 21:06:13 467.674
AAUSAT CUBESAT 2 01 Sep 21:00:02 21:04:07 55° 73° (ENE) 21:08:13 437.432
DOVE 4 01 Sep 21:06:10 21:10:43 53° 262° (W) 21:15:34 437.250
RS-15 01 Sep 21:08:43 21:18:10 29° 357° (N) 21:27:58 29.354- 29.394
DELFI C3 01 Sep 21:18:25 21:21:45 26° 68° (ENE) 21:25:09 145.870
HO-68 01 Sep 21:19:40 21:26:42 57° 259° (W) 21:33:47 435.675
Cosmos 2491 01 Sep 21:24:45 21:33:19 59° 268° (W) 21:41:48 435.465 / 435.565
ZACube-1 01 Sep 21:25:43 21:29:47 33° 69° (ENE) 21:33:57 437.345
CUBEBUG 2 01 Sep 21:29:04 21:33:39 59° 73° (ENE) 21:38:22 437.445
FUNcube-1 01 Sep 21:30:35 21:34:43 36° 70° (ENE) 21:38:58 145.935
CUTE 1.7 + AOD 2 01 Sep 21:32:09 21:36:07 36° 264° (W) 21:40:05 437.475
YUBILEINY 01 Sep 21:33:20 21:42:02 71° 94° (E) 21:50:51 435.215
UWE-3 01 Sep 21:34:12 21:38:41 52° 72° (ENE) 21:43:16 435.000/436.395/437.385
PRISM 01 Sep 21:43:33 21:46:39 21° 295° (WNW) 21:49:41 437.425
CINEMA 3 01 Sep 21:44:58 21:49:33 48° 262° (W) 21:54:20 145.822/145.860
CANX-2 01 Sep 21:46:57 21:50:27 23° 267° (W) 21:53:53 2200.000
STRAND 1 01 Sep 21:52:49 21:56:28 20° 299° (WNW) 21:59:59 437.568
50 SAT 01 Sep 21:53:15 21:54:04 11° 62° (ENE) 21:55:04 437.505
HUMSAT D 01 Sep 22:03:10 22:06:59 32° 69° (ENE) 22:10:53 437.325/437.525
SEEDS 01 Sep 22:07:05 22:10:18 20° 269° (W) 22:13:24 437.485
DX 1 01 Sep 22:11:01 22:14:30 25° 66° (ENE) 22:18:05 434.975-435.025
Oscar 11 01 Sep 22:16:32 22:20:46 49° 261° (W) 22:25:01 145.826/435.025
UKube-1 01 Sep 22:21:52 22:25:32 28° 67° (ENE) 22:29:16 .
ESTCUBE 1 01 Sep 22:27:56 22:30:59 19° 64° (ENE) 22:34:09 437.505/2401.250
COMPASS 1 01 Sep 22:28:09 22:30:45 15° 271° (W) 22:33:11 437.405
BEESAT 3 01 Sep 22:29:52 22:32:39 18° 37° (NE) 22:35:29 437.485
CUBEBUG 1 01 Sep 22:35:19 22:38:08 18° 64° (ENE) 22:41:05 437.445
AISAT 01 Sep 22:36:41 22:40:29 29° 67° (ENE) 22:44:22 437.250
AAUSAT CUBESAT 2 01 Sep 22:37:44 22:40:06 14° 271° (W) 22:42:18 437.432
BEESAT 2 01 Sep 22:43:21 22:46:13 18° 37° (NE) 22:49:08 435.950
UNISAT 6 01 Sep 22:49:23 22:52:39 20° 90° (E) 22:55:58 437.425
DELFI C3 01 Sep 22:53:11 22:56:44 28° 265° (W) 23:00:16 145.870
ZACube-1 01 Sep 23:02:14 23:06:10 28° 267° (W) 23:10:06 437.345
VELOX 1 01 Sep 23:04:03 23:08:18 53° 72° (ENE) 23:12:39 145.980
FUNcube-1 01 Sep 23:07:18 23:11:08 25° 267° (W) 23:14:55 145.935
CUBEBUG 2 01 Sep 23:07:44 23:10:47 17° 272° (W) 23:13:43 437.445
UWE-3 01 Sep 23:12:18 23:15:33 18° 271° (W) 23:18:44 435.000/436.395/437.385
TIGRISAT 01 Sep 23:16:55 23:21:07 35° 96° (E) 23:25:13 435.000
Cosmos 2504 01 Sep 23:19:54 23:27:39 50° 89° (E) 23:35:51 435.465 / 435.565
RS-15 01 Sep 23:24:03 23:34:45 40° 30° (NNE) 23:45:59 29.354- 29.394
50 SAT 01 Sep 23:24:04 23:28:03 78° 259° (W) 23:32:01 437.505
Cosmos 2491 01 Sep 23:26:13 23:28:26 11° 288° (WNW) 23:29:57 435.465 / 435.565
AIST 2 01 Sep 23:26:47 23:28:57 14° 32° (NNE) 23:31:12 435.215
TISAT 1 01 Sep 23:28:25 23:29:52 12° 61° (ENE) 23:31:31 437.305
YUBILEINY 01 Sep 23:32:21 23:39:48 29° 297° (WNW) 23:47:06 435.215
ANTELSAT 01 Sep 23:34:15 23:38:46 55° 100° (E) 23:43:09 437.575/2403.000
AUBIESAT-1 01 Sep 23:36:52 23:40:10 26° 99° (E) 23:43:18 437.475
HUMSAT D 01 Sep 23:39:05 23:42:45 26° 266° (W) 23:46:23 437.325/437.525
M-CUBED/EXP-1 PRIME 01 Sep 23:42:58 23:46:41 37° 102° (ESE) 23:50:08 437.505
POLYITAN 1 01 Sep 23:46:23 23:50:04 27° 94° (E) 23:53:46 437.675
DX 1 01 Sep 23:46:37 23:50:36 35° 263° (W) 23:54:36 434.975-435.025
DUCHIFAT 1 01 Sep 23:48:06 23:51:43 26° 94° (E) 23:55:23 145.980
POPSAT HIP 1 01 Sep 23:48:32 23:52:15 28° 95° (E) 23:55:58 437.405
BUGSAT 1 01 Sep 23:51:35 23:54:34 19° 91° (E) 23:57:39 437.445
CUSAT 1 01 Sep 23:52:43 23:56:17 29° 87° (E) 00:00:53 437.405
UKube-1 01 Sep 23:57:48 00:01:36 30° 264° (W) 00:05:24 .
SPROUT 02 Sep 00:01:21 00:05:22 41° 71° (ENE) 00:09:27 437.525
ESTCUBE 1 02 Sep 00:03:08 00:07:31 51° 261° (W) 00:11:54 437.505/2401.250
QB50P2 02 Sep 00:05:31 00:09:38 43° 98° (E) 00:13:45 145.880/145.840
NANOSAT C BR1 02 Sep 00:05:42 00:09:47 41° 98° (E) 00:13:51 145.865
BEESAT 3 02 Sep 00:06:59 00:11:01 69° 237° (WSW) 00:14:58 437.485
CUBEBUG 1 02 Sep 00:09:55 00:14:08 51° 260° (W) 00:18:23 437.445
AISAT 02 Sep 00:13:08 00:17:01 29° 265° (W) 00:20:54 437.250
QB50P1 02 Sep 00:19:42 00:23:59 60° 101° (E) 00:28:13 145.935-145.965
BEESAT 2 02 Sep 00:20:38 00:24:41 67° 238° (WSW) 00:28:40 435.950
UNISAT 6 02 Sep 00:25:19 00:29:43 46° 289° (WNW) 00:33:59 437.425
SO-50 02 Sep 00:25:34 00:28:36 17° 111° (ESE) 00:31:51 436.795
DANDE 02 Sep 00:28:28 00:31:50 36° 90° (E) 00:36:17 436.750
VELOX 1 02 Sep 00:42:23 00:45:14 16° 270° (W) 00:47:57 145.980
BEESAT 02 Sep 00:45:27 00:48:14 16° 61° (ENE) 00:51:10 436.000
TIGRISAT 02 Sep 00:53:52 00:57:43 26° 294° (WNW) 01:01:25 435.000
TISAT 1 02 Sep 01:00:50 01:05:03 79° 257° (WSW) 01:09:19 437.305
AIST 2 02 Sep 01:04:06 01:08:18 73° 54° (NE) 01:12:25 435.215
SWISSCUBE 02 Sep 01:10:08 01:14:07 28° 66° (ENE) 01:18:11 437.505
AUBIESAT-1 02 Sep 01:11:30 01:14:52 26° 299° (WNW) 01:17:58 437.475
ANTELSAT 02 Sep 01:11:59 01:15:08 18° 297° (WNW) 01:18:07 437.575/2403.000
Cosmos 2504 02 Sep 01:12:23 01:20:06 40° 291° (WNW) 01:28:03 435.465 / 435.565
M-CUBED/EXP-1 PRIME 02 Sep 01:18:13 01:21:15 20° 302° (WNW) 01:24:02 437.505
POLYITAN 1 02 Sep 01:22:09 01:25:58 30° 292° (WNW) 01:29:42 437.675
DUCHIFAT 1 02 Sep 01:23:43 01:27:32 31° 292° (WNW) 01:31:16 145.980
POPSAT HIP 1 02 Sep 01:24:19 01:28:05 30° 292° (WNW) 01:31:48 437.405
BUGSAT 1 02 Sep 01:26:12 01:30:15 43° 289° (WNW) 01:34:18 437.445
Oscar 19 02 Sep 01:29:13 01:32:17 16° 88° (E) 01:35:34 437.125/150
CUSAT 1 02 Sep 01:34:55 01:38:45 30° 296° (WNW) 01:43:37 437.405
RS-15 02 Sep 01:36:52 01:48:45 86° 236° (SW) 02:01:01 29.354- 29.394
SPROUT 02 Sep 01:38:25 01:41:39 20° 269° (W) 01:44:48 437.525
QB50P2 02 Sep 01:42:04 01:45:16 20° 295° (WNW) 01:48:20 145.880/145.840
NANOSAT C BR1 02 Sep 01:42:07 01:45:22 21° 295° (WNW) 01:48:30 145.865
ITUPSAT 1 02 Sep 01:48:25 01:53:05 57° 72° (ENE) 01:57:47 437.325
QB50P1 02 Sep 01:56:50 01:59:25 15° 297° (WNW) 02:01:51 145.935-145.965
SO-50 02 Sep 02:03:50 02:08:39 70° 309° (NW) 02:13:36 436.795
PCSat 02 Sep 02:08:22 02:13:40 58° 117° (ESE) 02:19:00 145.827
DANDE 02 Sep 02:12:23 02:15:23 20° 301° (WNW) 02:18:55 436.750
Gurwin Techsat 1B 02 Sep 02:19:23 02:22:18 15° 87° (E) 02:25:27 435.225
BEESAT 02 Sep 02:20:49 02:25:35 70° 258° (WSW) 02:30:21 436.000
GONETS M04 02 Sep 02:22:06 02:29:37 36° 85° (E) 02:37:22
ITAMSAT 1 02 Sep 02:30:44 02:33:33 15° 88° (E) 02:36:36 435.822/435.867
AIST 2 02 Sep 02:44:25 02:46:20 13° 250° (WSW) 02:48:03 435.215
SWISSCUBE 02 Sep 02:47:28 02:51:53 36° 263° (W) 02:56:16 437.505
STARS 02 Sep 02:52:08 02:55:49 27° 66° (ENE) 02:59:35 437.465
Oscar 19 02 Sep 03:07:03 03:12:15 70° 288° (WNW) 03:17:24 437.125/150
KKS-1 02 Sep 03:12:55 03:17:21 71° 74° (ENE) 03:21:50 437.445
VERMONT LUNAR 02 Sep 03:13:04 03:13:44 11° 154° (SSE) 03:14:28 437.305
AO-7 02 Sep 03:20:51 03:23:26 12° 82° (E) 03:26:43 29.400- 29.500
ITUPSAT 1 02 Sep 03:28:09 03:31:24 17° 270° (W) 03:34:29 437.325
MOZHAYETS 4 02 Sep 03:35:14 03:38:31 20° 64° (ENE) 03:41:54
O/OREOS (USA 219) 02 Sep 03:44:55 03:48:10 19° 50° (NE) 03:51:31 437.305
SO-50 02 Sep 03:46:53 03:50:07 17° 330° (NNW) 03:53:18 436.795
RS-15 02 Sep 03:50:47 03:59:54 25° 257° (WSW) 04:08:37 29.354- 29.394
PCSat 02 Sep 03:52:49 03:57:28 28° 317° (NW) 04:02:04 145.827
JAS-2 02 Sep 03:55:36 04:02:31 55° 98° (E) 04:08:36 435.910
Gurwin Techsat 1B 02 Sep 03:57:39 04:02:59 76° 286° (WNW) 04:08:17 435.225
ITAMSAT 1 02 Sep 04:08:31 04:13:43 74° 287° (WNW) 04:18:54 435.822/435.867
HORYU 2 02 Sep 04:14:44 04:17:43 18° 91° (E) 04:20:49 437.375
Cosmos 2499 02 Sep 04:17:13 04:25:18 51° 89° (E) 04:33:48 435.465 / 435.565
GONETS M04 02 Sep 04:17:42 04:26:11 55° 286° (WNW) 04:34:43
STARS 02 Sep 04:28:09 04:32:10 33° 264° (W) 04:36:10 437.465
VERMONT LUNAR 02 Sep 04:47:01 04:49:35 27° 169° (S) 04:52:12 437.305
Oscar 19 02 Sep 04:49:08 04:50:46 11° 304° (NW) 04:52:07 437.125/150
KKS-1 02 Sep 04:52:30 04:54:34 13° 273° (W) 04:56:24 437.445
AO-7 02 Sep 05:09:56 05:18:12 64° 104° (ESE) 05:26:24 29.400- 29.500
MOZHAYETS 4 02 Sep 05:10:56 05:15:26 49° 261° (W) 05:19:55
O/OREOS (USA 219) 02 Sep 05:23:29 05:28:02 59° 250° (WSW) 05:32:32 437.305
CUBESAT XI-V 02 Sep 05:31:52 05:35:43 27° 67° (ENE) 05:39:36 437.345
Gurwin Techsat 1B 02 Sep 05:39:55 05:42:10 12° 304° (NW) 05:44:11 435.225
JAS-2 02 Sep 05:41:06 05:47:13 31° 299° (WNW) 05:52:38 435.910
HORYU 2 02 Sep 05:50:20 05:54:40 49° 289° (WNW) 05:58:57 437.375
ITAMSAT 1 02 Sep 05:50:29 05:52:26 12° 304° (NW) 05:54:08 435.822/435.867
STRAND 1 02 Sep 05:53:58 05:56:59 16° 60° (ENE) 06:00:11 437.568
PHONESAT 2.4 02 Sep 05:54:47 05:57:09 18° 158° (SSE) 05:59:33 2401.200-2431.200
Cosmos 2499 02 Sep 06:10:41 06:18:44 41° 291° (WNW) 06:26:59 435.465 / 435.565
GONETS M04 02 Sep 06:22:14 06:25:42 12° 313° (NW) 06:28:38
VERMONT LUNAR 02 Sep 06:22:57 06:25:39 31° 186° (S) 06:28:21 437.305
CUTE-I 02 Sep 06:42:18 06:46:38 25° 93° (E) 06:51:04 437.470
PRISM 02 Sep 06:59:27 07:03:12 37° 70° (ENE) 07:07:00 437.425
AO-7 02 Sep 07:03:19 07:10:36 34° 304° (NW) 07:17:42 29.400- 29.500
CUBESAT XI-V 02 Sep 07:08:51 07:13:03 34° 264° (W) 07:17:14 437.345
SO-50 02 Sep 07:14:42 07:15:42 11° 19° (NNE) 07:16:49 436.795
AIST 1 02 Sep 07:23:18 07:25:20 14° 86° (E) 07:27:33
STRAND 1 02 Sep 07:30:33 07:35:39 76° 256° (WSW) 07:40:47 437.568
PHONESAT 2.4 02 Sep 07:31:24 07:34:33 35° 174° (S) 07:37:42 2401.200-2431.200
Cubesat XI-IV 02 Sep 07:37:06 07:42:27 76° 102° (ESE) 07:47:48 437.490
YUBILEINY 02 Sep 07:41:11 07:49:18 40° 68° (ENE) 07:57:28 435.215
VERMONT LUNAR 02 Sep 07:59:44 08:01:36 15° 202° (SSW) 08:03:26 437.305
CUTE-I 02 Sep 08:21:52 08:26:58 46° 291° (WNW) 08:32:02 437.470
Cosmos 2491 02 Sep 08:32:32 08:40:03 36° 85° (E) 08:47:47 435.465 / 435.565
BRITE-PL 02 Sep 08:34:22 08:39:50 58° 99° (E) 08:45:27 437.365/2234.400
PRISM 02 Sep 08:35:42 08:38:48 20° 267° (W) 08:41:48 437.425
HO-68 02 Sep 08:45:33 08:51:18 26° 91° (E) 08:57:13 435.675
SO-50 02 Sep 08:53:24 08:57:50 32° 42° (NE) 09:02:15 436.795
GOMX 1 02 Sep 08:56:07 09:01:29 56° 99° (E) 09:06:54 467.674
AIST 1 02 Sep 08:58:22 09:02:33 55° 282° (WNW) 09:06:45
M-CUBED/EXP-1 PRIME 02 Sep 09:00:18 09:02:00 12° 54° (NE) 09:03:53 437.505
DOVE 4 02 Sep 09:02:50 09:07:51 41° 96° (E) 09:12:50 437.250
Cosmos 2504 02 Sep 09:04:52 09:10:29 20° 56° (NE) 09:16:17 435.465 / 435.565
PHONESAT 2.4 02 Sep 09:09:00 09:12:04 31° 191° (S) 09:15:07 2401.200-2431.200
PCSat 02 Sep 09:11:45 09:15:10 17° 34° (NNE) 09:18:42 145.827
CUTE 1.7 + AOD 2 02 Sep 09:15:07 09:18:54 32° 95° (E) 09:22:42 437.475
ISS 02 Sep 09:15:12 09:18:23 53° 145° (SE) 09:21:35 145.825
Cubesat XI-IV 02 Sep 09:18:31 09:22:01 17° 301° (WNW) 09:25:19 437.490
CUBEBUG 2 02 Sep 09:20:42 09:22:02 11° 84° (E) 09:23:38 437.445
DANDE 02 Sep 09:22:30 09:25:24 13° 53° (NE) 09:28:56 436.750
CANX-2 02 Sep 09:29:09 09:33:17 50° 99° (E) 09:37:23 2200.000
CINEMA 3 02 Sep 09:37:49 09:42:29 38° 96° (E) 09:47:03 145.822/145.860
YUBILEINY 02 Sep 09:37:58 09:46:27 51° 270° (W) 09:54:46 435.215
SEEDS 02 Sep 09:47:54 09:52:04 58° 100° (E) 09:56:10 437.485
UNISAT 6 02 Sep 09:50:02 09:53:44 24° 66° (ENE) 09:57:34 437.425
Oscar 11 02 Sep 10:02:07 10:05:40 25° 93° (E) 10:09:16 145.826/435.025
COMPASS 1 02 Sep 10:07:16 10:11:27 75° 102° (ESE) 10:15:34 437.405
BRITE-PL 02 Sep 10:13:37 10:17:59 24° 296° (WNW) 10:22:21 437.365/2234.400
AAUSAT CUBESAT 2 02 Sep 10:16:07 10:20:17 79° 102° (ESE) 10:24:24 437.432
TIGRISAT 02 Sep 10:17:10 10:21:32 41° 70° (ENE) 10:25:59 435.000
CUSAT 1 02 Sep 10:23:58 10:31:13 42° 69° (ENE) 10:38:59 437.405
AUBIESAT-1 02 Sep 10:24:37 10:29:15 56° 67° (ENE) 10:33:47 437.475
Cosmos 2491 02 Sep 10:28:08 10:36:39 55° 286° (WNW) 10:45:10 435.465 / 435.565
DELFI C3 02 Sep 10:29:37 10:33:10 30° 95° (E) 10:36:44 145.870
M-CUBED/EXP-1 PRIME 02 Sep 10:31:18 10:36:06 76° 69° (ENE) 10:40:48 437.505
HO-68 02 Sep 10:32:30 10:39:39 66° 291° (WNW) 10:46:45 435.675
SO-50 02 Sep 10:33:50 10:38:33 44° 242° (WSW) 10:43:08 436.795
ANTELSAT 02 Sep 10:34:38 10:39:15 63° 73° (ENE) 10:43:56 437.575/2403.000
GOMX 1 02 Sep 10:34:55 10:39:15 24° 296° (WNW) 10:43:30 467.674
DOVE 4 02 Sep 10:40:49 10:45:26 30° 294° (WNW) 10:49:58 437.250
POLYITAN 1 02 Sep 10:41:19 10:44:55 27° 68° (ENE) 10:48:37 437.675
DUCHIFAT 1 02 Sep 10:42:24 10:45:55 26° 67° (ENE) 10:49:31 145.980
POPSAT HIP 1 02 Sep 10:43:16 10:46:52 28° 68° (ENE) 10:50:34 437.405
BUGSAT 1 02 Sep 10:44:04 10:46:44 18° 64° (ENE) 10:49:33 437.445
PHONESAT 2.4 02 Sep 10:47:38 10:49:22 13° 206° (SSW) 10:51:02 2401.200-2431.200
ZACube-1 02 Sep 10:48:08 10:52:33 51° 99° (E) 10:56:50 437.345
CUTE 1.7 + AOD 2 02 Sep 10:51:13 10:54:42 25° 293° (WNW) 10:58:07 437.475
ISS 02 Sep 10:51:53 10:54:55 35° 343° (NNW) 10:57:58 145.825
FUNcube-1 02 Sep 10:52:47 10:57:14 55° 100° (E) 11:01:32 145.935
PCSat 02 Sep 10:54:11 10:59:38 72° 56° (NE) 11:05:03 145.827
CUBEBUG 2 02 Sep 10:54:44 10:59:28 82° 284° (WNW) 11:04:02 437.445
Cosmos 2504 02 Sep 10:55:47 11:04:22 82° 80° (E) 11:12:24 435.465 / 435.565
UWE-3 02 Sep 10:58:26 11:03:05 86° 100° (E) 11:07:34 435.000/436.395/437.385
NANOSAT C BR1 02 Sep 10:59:58 11:03:56 40° 71° (ENE) 11:07:58 145.865
QB50P2 02 Sep 11:00:10 11:04:12 42° 71° (ENE) 11:08:17 145.880/145.840
DANDE 02 Sep 11:02:50 11:10:11 54° 73° (ENE) 11:18:30 436.750
CANX-2 02 Sep 11:06:04 11:08:51 17° 296° (WNW) 11:11:30 2200.000
QB50P1 02 Sep 11:14:05 11:18:15 58° 74° (ENE) 11:22:29 145.935-145.965
CINEMA 3 02 Sep 11:15:13 11:19:31 29° 294° (WNW) 11:23:39 145.822/145.860
HUMSAT D 02 Sep 11:20:17 11:24:21 43° 98° (E) 11:28:21 437.325/437.525
SEEDS 02 Sep 11:24:59 11:27:25 15° 297° (WNW) 11:29:42 437.485
UNISAT 6 02 Sep 11:25:50 11:30:18 42° 263° (W) 11:34:47 437.425
DX 1 02 Sep 11:32:34 11:36:32 33° 96° (E) 11:40:30 434.975-435.025
Oscar 11 02 Sep 11:38:01 11:41:54 32° 291° (WNW) 11:45:44 145.826/435.025
UKube-1 02 Sep 11:42:35 11:46:37 37° 97° (E) 11:50:40 .
COMPASS 1 02 Sep 11:44:55 11:46:34 12° 298° (WNW) 11:48:01 437.405
ESTCUBE 1 02 Sep 11:53:53 11:57:44 28° 94° (E) 12:01:39 437.505/2401.250
AAUSAT CUBESAT 2 02 Sep 11:53:58 11:55:19 11° 299° (WNW) 11:56:28 437.432
TIGRISAT 02 Sep 11:54:36 11:58:26 24° 268° (W) 12:02:12 435.000
CUBEBUG 1 02 Sep 11:56:53 12:00:31 25° 94° (E) 12:04:11 437.445
AUBIESAT-1 02 Sep 12:00:51 12:04:14 19° 264° (W) 12:07:27 437.475
AISAT 02 Sep 12:00:56 12:05:14 44° 99° (E) 12:09:32 437.250
DELFI C3 02 Sep 12:04:53 12:08:06 23° 293° (WNW) 12:11:15 145.870
CUSAT 1 02 Sep 12:06:26 12:13:56 51° 267° (W) 12:21:45 437.405
M-CUBED/EXP-1 PRIME 02 Sep 12:08:41 12:11:21 14° 267° (W) 12:13:47 437.505
ANTELSAT 02 Sep 12:13:35 12:16:30 16° 272° (W) 12:19:16 437.575/2403.000
POLYITAN 1 02 Sep 12:16:57 12:20:45 30° 265° (W) 12:24:33 437.675
DUCHIFAT 1 02 Sep 12:17:50 12:21:37 31° 264° (W) 12:25:25 145.980
BUGSAT 1 02 Sep 12:17:56 12:21:52 46° 261° (W) 12:25:53 437.445
POPSAT HIP 1 02 Sep 12:18:56 12:22:42 29° 265° (W) 12:26:26 437.405
HO-68 02 Sep 12:22:07 12:26:12 16° 311° (NW) 12:29:59 435.675
ZACube-1 02 Sep 12:25:22 12:28:32 19° 296° (WNW) 12:31:32 437.345
VELOX 1 02 Sep 12:28:33 12:33:04 82° 105° (ESE) 12:37:32 145.980
ISS 02 Sep 12:29:07 12:31:55 25° 4° (N) 12:34:42 145.825
FUNcube-1 02 Sep 12:30:07 12:33:07 17° 297° (WNW) 12:35:57 145.935
50 SAT 02 Sep 12:31:28 12:35:20 68° 285° (WNW) 12:39:08 437.505
Cosmos 2491 02 Sep 12:32:42 12:36:10 12° 312° (NW) 12:39:05 435.465 / 435.565
CUBEBUG 2 02 Sep 12:33:54 12:35:24 11° 302° (WNW) 12:36:40 437.445
